Theta_e
316 315 316 321 323 325 330 330 333 333 328 320 317 321 318 320 323 319 321 322 323 320 319 322 325 324 324 330 330 331 330 332 336 332 334 340 342 342 342 342 341 338 337 338 339 339 339 339 339 339 338 337 337 337 337 337 336 333 330 330 334 336 335 335 332 327 327 330 328 324 321 319 322 326 329 331 332 333 331 332 332 332 334 334 335 335 333 329 322 322 325 324 324 326 326 326 326
317 316 320 325 324 327 337 334 329 327 325 318 315 320 316 323 327 321 324 323 322 320 321 324 325 325 324 328 329 336 336 332 336 337 338 341 342 342 342 342 341 338 337 338 338 338 339 339 339 339 338 338 338 338 338 338 337 335 334 334 336 336 336 336 331 326 327 329 328 325 322 317 319 327 331 333 333 333 332 332 333 333 333 334 335 334 334 329 322 323 325 324 325 326 325 326 325
317 318 323 326 327 328 335 333 325 323 322 317 311 317 319 324 325 321 323 321 322 321 323 324 324 324 322 327 329 338 337 331 337 338 338 341 341 342 342 342 341 338 336 337 337 337 338 338 339 339 339 338 338 338 339 338 337 336 337 337 336 336 336 335 331 326 326 327 327 325 321 316 319 327 332 334 332 332 332 331 333 334 334 335 334 334 332 325 321 324 324 324 326 326 325 325 325
318 321 324 326 333 331 331 331 330 327 318 316 312 315 323 323 323 321 322 321 322 322 323 323 322 320 320 328 329 334 333 332 336 338 339 340 341 342 342 342 341 339 337 337 336 336 337 338 339 338 339 338 338 338 339 339 338 337 338 338 336 336 337 335 330 327 327 327 327 324 320 315 317 326 332 333 332 332 332 331 332 333 334 335 334 334 330 321 321 324 323 325 327 325 326 325 327
321 322 324 324 333 331 330 328 331 328 315 320 317 316 324 321 322 321 320 321 322 323 322 322 321 317 321 327 328 332 333 333 336 337 339 339 341 341 341 342 341 340 339 339 337 334 335 337 338 338 338 338 338 338 338 338 338 337 337 337 336 336 336 335 331 328 327 328 328 324 319 315 314 321 330 333 332 332 332 332 332 333 334 334 333 333 329 320 321 323 322 326 326 325 326 326 328
322 323 325 324 328 327 331 325 319 320 314 323 319 317 323 319 321 321 320 320 321 323 320 322 319 320 326 326 328 332 332 336 337 336 338 339 340 340 341 341 341 342 341 341 339 335 334 336 338 337 338 338 337 337 337 338 337 337 337 337 336 337 336 334 332 329 328 329 329 325 318 314 311 317 327 331 331 331 331 333 333 334 334 333 333 332 327 322 322 322 322 325 325 325 326 326 328
322 326 328 325 328 328 333 324 315 319 316 320 319 318 321 319 321 320 320 320 320 320 319 320 319 321 324 326 330 331 332 336 337 337 338 338 339 340 341 341 341 342 341 341 340 337 334 334 336 337 337 336 336 336 337 338 337 337 337 337 336 336 336 334 332 330 329 329 329 324 318 313 311 314 323 329 330 330 330 331 333 333 333 332 331 329 325 322 322 320 320 324 325 325 326 327 328
322 326 331 330 332 332 330 323 318 323 319 317 318 319 320 320 321 319 321 320 320 319 319 319 320 322 320 328 332 330 335 336 336 337 337 337 339 340 341 341 341 342 341 342 341 337 335 333 334 336 336 335 335 335 336 337 337 337 337 337 336 336 335 334 332 331 330 330 328 323 318 313 310 314 322 328 329 329 329 329 331 331 331 329 327 326 324 323 322 320 321 324 325 326 326 326 327
321 324 332 330 328 330 324 319 317 320 319 319 318 320 321 320 320 320 320 319 319 319 319 319 320 320 320 331 331 329 335 336 336 336 336 336 338 340 341 341 341 341 341 342 341 337 335 333 333 335 335 335 334 334 335 336 336 337 337 336 336 336 335 334 332 331 330 330 327 322 317 313 311 314 321 326 328 328 328 328 329 329 328 327 326 325 325 324 322 321 322 324 325 325 325 325 325
325 323 330 331 327 326 319 316 318 318 317 318 318 320 320 319 320 319 319 318 319 319 318 319 319 319 323 331 330 329 334 335 336 335 335 335 337 340 340 341 341 341 341 342 341 336 335 333 332 334 335 335 333 333 334 336 336 336 336 336 336 335 335 334 332 331 331 330 326 321 317 315 313 313 319 323 324 324 326 327 327 327 326 326 325 325 324 324 323 322 322 324 324 324 324 324 323
329 325 331 335 326 320 318 318 317 318 317 317 318 318 319 319 319 318 318 317 318 321 318 319 318 319 324 327 326 329 334 335 335 335 335 333 338 340 338 340 341 341 341 342 341 336 336 333 332 333 334 334 332 332 333 334 335 335 336 336 336 335 335 334 333 332 331 330 327 323 319 318 316 316 318 320 320 320 322 323 324 325 325 325 325 324 324 324 323 323 323 322 323 323 323 323 322
331 329 333 328 323 318 319 321 318 318 317 318 318 317 319 319 318 316 317 316 319 321 318 319 317 318 324 324 324 328 334 335 333 334 332 332 337 339 338 340 341 341 341 342 341 337 335 334 333 332 333 333 332 332 332 333 334 335 335 335 336 335 335 334 333 332 331 330 328 325 322 320 318 318 318 318 318 317 317 318 318 318 319 321 323 323 323 323 322 323 322 321 322 322 322 322 322
329 330 329 323 329 325 320 321 319 321 317 318 319 317 319 317 318 318 317 317 318 320 317 319 318 319 323 322 323 326 332 333 334 334 331 333 337 338 338 341 341 341 341 341 341 338 336 335 334 334 333 332 332 331 331 332 333 333 334 334 335 334 334 334 333 332 332 331 329 327 324 322 321 320 320 319 318 315 313 313 311 310 311 314 318 320 321 321 321 322 321 321 322 322 321 321 321
328 332 329 327 333 327 325 322 319 323 317 318 319 317 319 317 318 318 317 317 317 319 317 317 316 321 322 322 324 325 331 333 335 335 333 335 336 338 339 341 341 341 341 341 341 338 336 336 336 336 333 333 332 331 331 331 332 332 332 333 334 334 334 334 333 332 332 332 330 328 326 324 323 321 321 320 318 316 312 309 306 305 306 308 311 314 316 317 318 319 320 321 322 321 321 320 320
327 335 330 327 328 322 327 323 321 325 317 317 318 317 319 316 318 318 318 319 318 317 316 315 315 319 320 325 325 324 332 333 333 335 335 336 335 337 339 341 342 341 341 341 341 339 337 337 337 337 335 334 334 332 331 331 331 331 331 334 334 334 335 334 333 332 332 332 330 329 327 325 323 322 322 320 318 316 312 308 304 303 303 305 306 306 307 308 310 315 319 321 321 320 320 320 319
327 339 331 323 325 320 322 322 323 323 317 318 317 317 319 315 317 318 317 319 318 316 316 315 315 318 320 330 327 324 333 332 331 334 335 336 336 337 339 341 342 341 342 341 342 340 337 337 337 337 336 336 335 334 332 331 331 331 331 333 335 334 334 334 333 333 333 332 331 329 327 326 324 323 323 322 319 316 312 308 303 301 301 302 301 300 301 302 307 314 318 321 320 319 319 319 319
332 344 333 322 325 320 318 323 324 322 318 318 316 317 319 315 316 316 315 317 318 317 318 316 316 320 328 335 331 328 334 332 332 334 334 336 336 337 338 339 341 341 342 341 342 341 339 338 337 337 337 336 336 335 334 332 331 331 331 332 334 334 334 334 333 333 333 332 331 330 328 326 326 324 323 323 321 317 313 309 304 301 300 299 299 299 300 303 308 314 318 320 319 319 319 319 319
332 336 328 324 327 320 316 320 323 323 318 317 317 318 319 317 316 315 314 316 317 317 317 319 320 322 330 333 331 332 332 332 334 333 333 335 335 336 336 337 340 341 341 341 341 341 341 339 339 338 337 337 336 337 335 333 332 331 330 330 333 334 334 334 333 333 333 332 331 329 329 328 327 324 324 324 322 319 314 309 304 300 299 299 299 299 302 305 309 313 316 318 318 318 318 318 319
329 331 326 328 326 316 316 318 318 320 318 318 317 317 319 318 316 314 314 315 316 317 316 321 324 323 329 332 330 332 331 333 334 332 332 333 334 335 335 336 339 340 340 341 341 341 341 339 340 339 338 337 336 337 336 335 333 331 329 329 332 333 334 334 333 334 333 332 330 329 329 328 327 325 324 324 322 319 314 309 304 300 299 300 300 302 304 307 310 313 315 315 316 316 317 318 318
326 333 327 323 320 316 317 317 317 319 317 317 316 316 317 317 316 314 315 316 316 318 316 319 324 324 329 331 328 330 331 333 333 332 332 332 333 333 333 335 337 339 339 340 340 340 340 339 340 339 339 339 338 338 337 336 334 332 330 328 331 333 333 334 333 334 333 332 330 328 329 328 327 326 324 323 323 319 314 308 304 300 300 301 303 305 307 308 309 312 313 313 314 314 315 316 317
322 329 326 319 318 320 318 317 318 319 317 318 318 316 317 316 316 315 316 316 314 317 316 318 322 322 327 329 327 328 329 331 332 331 331 331 332 332 332 333 335 338 339 339 339 339 340 340 340 340 339 339 339 338 337 337 336 334 331 328 330 332 333 333 333 333 333 331 330 329 328 328 327 325 324 323 323 320 314 308 303 301 302 303 306 308 308 308 309 311 312 312 312 313 314 316 317
318 318 320 318 319 321 317 317 320 319 318 319 318 316 316 315 316 318 317 318 318 318 316 317 319 319 324 327 326 326 327 329 330 330 330 331 331 332 332 332 334 336 338 338 337 337 338 339 339 339 339 339 339 338 338 338 337 335 333 330 329 332 333 333 333 332 332 331 329 329 329 328 327 325 324 324 323 320 314 307 303 303 305 305 307 309 309 308 309 310 311 312 312 313 314 316 317
318 315 317 319 320 320 316 318 319 319 320 319 318 316 316 316 316 318 317 319 320 318 319 321 318 315 318 324 325 325 327 327 328 329 330 331 331 332 333 332 333 333 335 336 336 336 336 337 339 339 339 339 339 338 338 337 337 336 335 332 329 330 333 334 333 332 332 331 329 329 329 329 328 325 324 324 323 320 315 308 305 306 308 308 310 311 311 310 308 308 310 311 312 313 315 316 317
319 316 316 318 319 318 317 318 317 319 321 318 317 316 317 317 316 316 317 319 319 316 318 320 317 314 316 323 324 323 325 326 327 329 329 331 331 331 332 333 333 333 334 334 334 335 334 334 337 339 339 338 338 338 338 337 337 337 336 335 332 330 331 333 333 332 332 331 329 329 329 329 329 326 324 324 323 320 315 310 307 308 310 311 312 313 313 312 309 308 309 310 312 313 315 316 317
318 317 316 317 317 317 317 317 318 318 318 317 317 318 317 317 316 316 318 321 321 316 317 320 318 315 318 324 325 322 323 325 326 328 329 330 330 331 332 333 333 333 334 334 333 334 333 332 333 337 339 338 338 338 338 337 338 338 336 336 335 332 331 331 333 333 332 331 330 330 330 329 329 328 325 324 324 319 314 311 310 311 312 313 314 314 314 313 310 308 308 310 311 313 314 315 316
317 318 317 317 316 316 316 317 317 317 317 317 317 319 319 316 316 318 320 321 320 317 320 324 324 322 321 323 323 320 322 323 324 326 327 329 330 331 332 332 333 332 333 334 334 333 333 332 331 334 337 337 337 338 338 338 338 338 337 337 336 335 332 331 332 333 333 332 332 331 331 330 329 329 326 325 324 321 315 311 311 313 313 314 314 314 314 312 310 308 307 309 310 312 313 314 315
317 318 318 319 317 316 317 317 316 317 317 317 318 319 319 316 316 319 321 321 317 317 320 320 323 327 323 322 322 318 319 321 322 324 325 327 329 330 331 332 333 332 332 334 334 333 332 332 331 331 334 336 337 337 337 337 338 338 338 337 337 337 335 332 331 333 333 333 332 332 331 331 330 329 327 325 324 322 317 312 312 314 314 315 315 314 313 311 309 307 307 308 310 311 311 312 314
317 318 318 318 318 317 317 317 317 318 317 316 317 319 318 316 318 320 320 321 318 316 320 320 321 324 320 320 321 318 318 319 320 322 323 325 327 329 330 331 332 332 332 332 333 333 332 332 332 331 332 334 335 335 336 337 337 337 337 337 337 337 336 334 332 332 333 333 333 332 332 331 330 329 327 326 324 322 319 315 314 316 316 315 315 314 312 310 308 307 307 307 309 310 310 311 312
318 318 318 316 317 318 318 318 318 317 317 317 317 318 320 319 320 320 319 321 320 316 320 321 320 321 320 320 319 319 318 317 320 321 322 324 325 327 328 330 332 333 332 332 332 332 332 332 331 332 332 333 334 333 334 336 336 336 336 336 336 337 337 336 334 333 333 333 333 333 332 331 330 329 328 326 325 323 320 318 317 317 318 317 314 313 312 309 307 306 306 306 307 309 310 310 310
318 317 319 318 316 320 320 317 318 316 316 319 316 316 323 325 321 319 319 321 321 318 320 320 320 321 322 321 319 318 316 314 318 320 322 323 323 325 326 327 330 332 332 332 332 332 331 331 330 331 332 333 333 332 333 335 335 335 334 334 334 336 337 337 335 334 333 333 333 333 333 332 331 329 328 327 325 323 321 321 320 319 320 317 314 312 312 309 307 306 305 305 306 307 308 308 310
319 317 322 323 318 322 322 317 317 317 316 318 317 316 322 325 321 319 319 321 320 320 322 320 320 320 321 323 321 319 316 312 315 319 321 322 322 323 323 324 328 330 332 332 332 332 331 331 329 329 331 332 333 333 333 334 335 334 333 332 332 334 336 337 337 335 334 334 334 334 333 332 331 330 329 327 326 324 323 322 322 321 320 318 314 312 312 309 306 305 304 304 304 305 305 305 307
319 318 323 324 319 322 322 317 318 318 316 316 317 319 322 321 320 319 318 320 320 321 323 322 322 321 320 321 320 320 317 312 313 317 320 321 322 322 322 323 326 328 330 331 332 332 331 330 330 328 328 330 331 332 333 333 334 333 333 333 332 332 333 335 335 335 335 334 334 333 333 333 331 330 329 328 327 325 324 324 324 323 320 317 314 311 311 308 306 304 303 304 304 303 301 300 302
323 320 324 324 319 320 320 318 318 319 318 316 315 318 321 320 320 320 318 320 321 321 323 322 321 321 320 319 319 319 319 316 315 315 317 321 322 322 323 322 324 326 328 330 331 331 331 330 329 328 327 327 329 330 331 332 332 332 332 332 333 332 332 332 332 333 334 334 335 334 333 333 332 330 330 329 327 326 326 325 324 324 320 317 314 312 310 308 307 304 301 302 303 300 298 297 296
323 318 319 324 322 320 320 319 318 319 318 317 316 317 320 320 320 319 319 320 321 321 323 323 321 320 320 320 320 319 319 321 320 316 316 319 321 322 323 323 322 324 327 329 330 330 330 330 329 328 327 327 329 330 331 331 332 331 331 330 331 332 332 331 331 330 330 331 333 334 334 333 332 331 330 329 328 328 327 325 324 324 321 316 314 312 310 309 306 303 300 299 299 298 296 295 293
326 320 318 322 321 318 321 320 318 318 317 316 317 317 319 320 318 317 317 317 319 321 321 321 321 319 320 320 320 320 319 322 319 315 316 318 320 322 322 323 323 324 327 329 329 330 329 329 329 328 328 327 328 329 329 330 331 331 330 328 328 329 331 331 331 331 330 330 330 334 334 333 333 331 330 329 328 328 327 325 324 324 322 316 313 311 310 308 303 300 299 296 295 295 295 293 292
326 329 326 322 318 316 319 318 316 317 317 317 318 317 318 317 316 316 316 316 317 318 319 318 318 317 318 318 318 318 320 321 317 314 317 317 318 321 322 323 323 323 326 328 329 329 329 329 329 328 327 327 328 328 328 328 328 329 328 327 327 328 330 331 331 331 332 332 332 334 334 333 332 331 331 330 328 328 328 326 323 323 321 316 312 311 311 308 302 298 297 295 294 293 293 292 292
323 328 326 322 319 317 318 318 317 316 317 320 320 318 318 316 316 317 315 316 316 316 317 316 317 316 316 317 317 318 320 318 314 313 316 317 317 319 321 322 323 323 324 326 328 328 328 328 328 328 327 326 326 326 326 326 326 326 326 326 325 326 328 330 330 330 331 331 333 334 334 333 333 332 331 330 329 328 328 327 324 322 320 316 314 314 313 308 302 299 296 295 294 293 292 291 291
323 325 321 321 324 319 317 318 317 316 317 322 323 319 318 317 315 316 315 316 316 316 316 316 316 316 316 318 319 319 319 316 316 316 314 315 317 318 319 321 321 322 322 324 325 326 327 327 327 327 326 325 325 325 325 325 325 325 325 325 324 325 327 328 329 329 329 330 332 333 333 332 332 332 331 331 329 328 328 326 324 323 320 317 314 313 312 307 300 297 295 294 294 293 292 291 291
328 324 318 321 327 321 317 320 319 317 318 323 325 320 318 317 316 316 315 315 315 314 316 316 317 317 317 317 318 319 319 320 321 321 317 315 316 317 318 320 321 322 322 323 324 325 325 326 326 326 325 325 324 324 324 324 324 324 324 323 323 324 325 326 327 327 328 328 329 331 332 332 332 332 332 331 329 328 328 326 324 323 320 317 313 308 306 303 298 296 297 296 294 293 292 291 291
330 327 321 324 328 321 318 321 319 318 318 321 324 321 319 317 316 318 316 314 315 315 316 317 317 318 318 317 318 319 320 322 324 326 323 316 315 317 317 319 320 321 322 323 324 324 324 324 324 324 323 323 322 322 322 322 322 322 322 322 322 323 324 324 325 325 326 326 327 328 330 330 330 331 331 330 328 328 328 327 325 323 319 316 313 308 304 301 298 297 297 296 294 292 291 291 291
326 332 330 328 327 320 319 321 321 322 322 321 321 321 328 330 326 328 325 316 315 315 315 317 318 318 319 319 320 321 322 323 325 332 331 319 315 316 317 318 319 320 321 322 322 323 323 323 322 322 321 321 321 320 320 320 320 320 320 320 320 321 321 321 322 322 322 323 324 324 325 326 328 329 330 330 328 327 327 326 325 323 319 315 313 311 307 303 300 298 298 296 295 294 292 291 291
320 327 329 328 326 324 327 330 326 324 324 323 319 319 333 341 333 332 332 325 324 322 320 321 319 317 318 320 320 322 324 326 328 333 331 320 315 315 316 317 318 319 320 320 321 321 321 321 321 321 320 320 319 319 319 319 319 318 318 318 318 318 318 318 318 319 319 320 320 320 320 321 323 326 328 329 329 327 327 326 324 322 319 315 311 310 308 304 301 301 300 298 296 295 293 291 291
317 321 325 329 330 328 332 333 324 322 324 321 319 319 328 331 322 323 326 325 328 326 324 326 322 319 320 321 322 323 325 327 330 332 327 319 315 314 315 316 317 318 318 319 320 320 320 320 320 320 319 319 319 318 318 318 318 317 317 316 316 316 316 316 316 316 316 317 317 317 317 318 320 324 326 327 328 327 326 325 323 322 318 312 308 308 308 305 304 304 302 299 296 295 294 292 291
321 322 327 334 331 326 331 330 322 325 327 325 326 323 323 327 322 319 318 317 320 319 319 322 320 320 323 323 325 325 326 329 333 335 331 321 314 314 315 316 317 317 317 317 318 318 319 319 319 319 319 318 318 318 318 317 317 316 316 315 315 315 315 315 315 314 314 314 314 315 317 318 320 322 324 325 326 326 325 323 322 320 317 312 308 309 309 307 305 304 300 298 296 295 295 294 293
325 324 328 334 332 330 335 333 328 329 324 325 330 322 320 329 330 322 317 316 319 320 319 318 317 321 324 326 329 328 329 334 336 339 335 321 313 314 316 316 317 316 316 316 317 317 317 317 318 318 317 318 317 317 317 316 316 315 315 314 314 314 314 314 314 313 313 313 313 314 315 317 319 320 322 323 324 324 323 322 321 318 315 313 312 310 309 308 307 304 300 298 297 295 296 296 295
325 325 329 333 333 334 336 331 331 332 323 323 332 325 317 320 325 322 315 316 322 323 321 319 318 322 325 332 338 335 335 338 335 335 328 315 312 315 315 316 316 316 316 316 316 316 316 317 317 317 316 317 317 316 316 316 315 315 314 314 313 314 314 314 314 313 313 312 312 313 314 316 317 319 320 321 321 321 321 320 319 318 315 314 314 312 309 309 307 305 302 301 298 296 295 295 296
325 330 334 333 334 339 339 335 334 329 322 325 331 327 316 315 324 326 319 321 325 322 322 322 321 323 327 334 338 337 338 337 333 332 322 311 312 315 315 315 315 315 315 315 315 316 316 316 316 316 316 316 316 316 315 315 315 314 314 314 313 313 313 313 313 312 312 312 312 313 314 315 317 318 318 319 319 319 319 319 318 318 316 315 314 311 308 308 308 306 304 301 299 297 296 295 296
329 336 334 326 330 339 338 335 332 323 322 330 332 327 318 313 322 326 324 327 325 321 324 326 324 326 333 337 338 337 337 334 331 332 326 317 316 314 313 314 314 314 315 314 315 315 315 316 315 315 315 315 315 315 315 314 314 314 314 313 313 313 313 313 312 312 311 311 311 312 313 314 315 317 317 318 318 317 317 317 317 317 316 315 314 311 308 308 308 305 303 300 298 297 297 295 295
330 329 325 317 321 331 330 330 331 326 325 327 326 325 318 315 319 322 325 328 324 322 325 328 326 327 337 344 340 337 335 332 330 330 328 327 321 312 311 313 313 314 314 314 315 315 315 315 315 315 315 315 315 314 314 314 313 314 313 313 313 312 312 312 312 311 310 310 311 311 312 312 314 315 317 317 317 316 316 316 316 316 316 316 315 313 311 309 308 305 303 300 298 297 297 297 297
326 323 322 320 322 326 325 327 327 327 328 325 321 322 322 323 325 323 324 324 325 324 325 330 331 328 337 346 344 338 333 331 329 327 328 328 319 309 309 313 313 313 314 314 315 315 315 315 314 315 315 314 314 314 314 313 313 313 313 313 313 312 311 311 312 312 311 311 311 311 312 313 314 316 317 318 317 316 316 316 316 316 317 317 316 314 312 311 310 307 305 302 299 298 298 299 298
323 324 323 321 326 328 327 327 325 326 329 325 320 322 328 327 323 322 324 324 327 327 327 331 333 332 334 340 345 342 334 329 326 325 327 322 313 308 310 312 312 313 313 314 315 314 315 315 314 314 314 314 314 313 313 313 312 312 312 312 311 311 311 311 311 312 311 311 312 312 313 314 316 317 318 319 318 316 316 315 315 315 315 315 314 313 311 310 308 307 306 303 300 299 300 300 299
320 326 323 320 325 325 324 328 329 329 327 324 323 326 330 326 320 322 325 325 324 323 326 329 327 329 329 331 339 340 337 332 325 325 329 320 309 308 310 310 311 313 313 313 314 314 314 314 314 314 314 314 313 313 313 312 312 312 311 311 310 310 310 310 311 312 311 312 312 313 314 315 316 318 319 320 319 317 316 314 313 313 313 314 314 312 310 309 307 306 306 305 302 301 301 299 298
320 323 322 324 327 323 321 323 323 322 320 320 322 322 323 319 317 320 320 320 320 317 322 326 325 328 327 329 333 334 337 338 329 329 335 324 310 308 310 310 311 312 312 313 313 314 314 314 314 314 313 313 313 313 313 312 312 312 311 311 310 310 310 311 311 311 311 312 312 314 314 315 316 317 318 320 319 318 316 314 314 313 312 313 313 312 310 309 308 307 307 306 304 303 301 298 298
321 324 322 323 325 325 327 326 322 320 319 321 320 316 316 315 317 321 319 317 319 319 320 322 325 328 328 331 333 331 334 339 335 331 329 320 310 308 310 310 311 312 312 313 313 313 314 313 314 313 313 313 313 312 312 312 311 311 311 310 310 309 309 310 311 311 311 311 312 313 314 314 315 316 317 318 317 317 315 314 313 313 312 311 311 311 310 309 308 307 306 305 305 304 301 298 298
322 326 323 324 327 327 327 325 323 321 319 323 323 317 314 313 315 319 318 317 321 324 323 323 324 325 326 331 334 330 327 333 341 339 333 323 311 308 310 310 311 312 312 312 312 313 313 313 313 313 312 313 312 312 312 311 311 311 310 310 309 309 309 309 311 311 311 311 312 312 313 314 314 314 314 314 314 314 314 313 313 312 311 309 308 308 309 308 307 307 305 304 303 303 300 299 298
323 323 320 324 330 329 327 324 322 322 320 320 319 313 313 316 319 317 315 317 319 318 320 324 324 322 323 327 332 333 330 333 341 344 345 333 313 308 312 312 312 312 312 312 312 312 313 313 313 313 312 312 312 312 312 311 311 310 309 309 309 308 308 309 310 311 311 311 311 312 312 313 312 312 313 313 314 314 314 314 312 311 309 308 307 307 308 308 307 306 305 304 303 302 300 299 299
323 322 321 323 323 324 326 324 322 324 324 321 317 313 314 320 322 319 317 318 318 318 319 323 325 322 324 327 329 334 337 339 341 342 350 341 315 309 313 313 313 314 312 312 312 312 312 312 313 313 312 312 311 311 311 311 311 310 309 309 308 308 308 308 309 310 310 310 311 312 312 312 312 312 313 313 313 314 314 313 311 309 308 308 308 307 307 307 307 306 305 304 303 301 300 299 298
321 320 322 322 320 321 321 320 321 323 326 328 322 314 316 321 320 318 320 320 318 320 319 322 326 324 326 330 330 333 337 345 349 346 352 341 315 308 312 313 313 313 312 312 312 312 312 312 312 312 312 311 311 311 311 310 310 310 309 308 308 308 307 307 308 309 309 309 309 311 312 313 312 312 312 312 312 312 312 310 309 308 307 308 308 308 307 307 306 305 305 303 302 301 299 299 298
Wind_Speed
9 9 6 4 5 7 6 2 2 3 3 3 1 3 1 1 3 4 4 3 3 1 0 3 3 3 4 6 9 7 3 0 2 3 1 6 17 19 19 21 20 18 19 18 16 17 16 17 16 16 16 16 16 15 14 14 14 14 14 14 13 14 14 15 13 13 14 15 16 17 17 18 19 19 20 20 20 20 20 20 17 15 16 18 17 17 18 19 21 22 23 25 29 30 30 30 30
8 7 4 3 4 3 2 2 3 2 5 3 1 3 2 2 5 4 4 3 2 3 2 4 5 6 8 9 8 6 5 4 2 3 3 14 21 20 22 20 18 18 19 18 17 17 16 16 16 17 16 16 16 15 14 13 14 13 13 13 14 14 15 14 12 13 14 15 16 16 16 17 19 19 20 20 20 19 19 19 17 15 16 17 17 17 18 18 20 21 22 26 30 29 29 29 29
7 5 4 4 2 1 0 2 3 2 5 3 1 2 2 6 4 4 5 5 5 4 3 4 5 4 6 6 3 4 2 1 6 5 6 18 18 19 23 17 16 17 18 18 17 17 17 16 16 16 16 16 15 14 14 13 14 13 13 14 15 15 14 14 12 13 14 15 15 15 16 17 18 19 20 19 19 18 17 17 17 17 17 17 17 17 18 18 19 21 22 25 28 28 28 27 26
5 3 5 5 3 2 3 2 2 4 3 3 1 2 3 7 6 5 4 4 4 3 3 3 4 1 5 7 3 4 3 2 7 6 6 15 18 22 24 18 16 16 17 17 16 17 18 17 16 16 15 14 14 14 13 13 13 13 13 14 14 14 14 13 12 12 13 14 15 15 15 17 18 19 19 18 18 17 15 15 15 16 17 17 17 18 18 19 19 21 24 25 26 27 26 25 25
4 4 5 3 3 1 2 1 2 5 2 4 3 1 5 7 7 5 3 1 2 4 3 3 2 2 4 5 2 3 3 4 7 8 9 17 23 23 23 21 17 17 17 15 15 17 17 18 17 16 15 14 14 13 13 12 13 13 13 13 13 14 14 13 12 12 12 13 14 14 14 16 17 18 20 19 18 17 16 15 15 16 17 16 16 17 17 18 20 23 26 26 26 27 26 25 27
6 7 3 1 1 1 2 2 3 5 0 4 5 3 6 7 7 7 4 3 4 5 4 3 3 2 4 2 3 3 2 6 8 9 14 22 25 22 23 22 20 20 18 14 15 16 17 18 17 17 16 15 14 13 13 12 13 13 13 13 13 13 12 12 12 11 12 12 13 13 14 16 17 18 19 19 18 17 16 16 16 16 16 16 17 16 17 19 20 24 27 27 27 26 25 25 26
6 6 1 1 2 1 4 3 3 3 2 3 8 6 7 7 7 8 5 3 5 4 3 2 4 5 3 1 3 4 1 10 11 13 20 26 26 22 23 21 20 22 18 15 15 16 17 18 18 17 15 15 14 14 13 13 13 13 13 13 13 12 12 11 11 11 11 11 12 13 14 15 16 17 18 18 18 16 15 15 15 16 16 16 16 16 16 19 20 24 27 26 26 25 25 25 26
3 2 1 4 2 2 4 2 2 2 2 3 7 8 9 9 7 7 5 3 1 0 2 2 4 6 2 3 3 3 6 13 15 20 25 27 27 24 22 20 21 21 18 16 15 16 17 17 18 17 16 15 14 14 13 14 13 13 13 12 12 12 12 11 11 11 11 11 12 13 14 15 15 16 17 17 17 16 15 14 15 15 15 16 16 17 17 19 20 23 26 25 25 24 24 24 25
0 1 1 3 1 3 3 2 2 2 2 4 6 7 9 9 8 7 5 3 4 3 1 2 4 5 2 5 3 1 7 15 20 24 26 27 27 25 23 21 22 21 19 17 16 17 17 17 17 17 16 15 14 14 13 14 13 13 13 12 12 12 12 11 12 11 11 11 12 13 14 15 16 16 17 17 16 17 17 16 16 16 16 17 17 18 18 18 19 22 24 24 23 23 22 22 23
1 1 1 2 2 4 2 1 1 2 2 4 6 7 9 8 8 7 6 5 5 4 1 3 5 5 4 5 2 1 8 17 22 24 23 26 27 26 23 20 21 20 19 18 17 18 17 16 17 16 16 15 14 14 14 14 14 13 13 12 12 12 12 11 12 12 11 12 12 13 14 15 16 16 16 16 15 16 17 17 17 18 18 18 18 18 18 19 19 20 22 22 21 21 21 22 23
2 2 2 4 3 2 2 2 2 3 2 3 3 4 7 7 7 5 7 5 4 5 2 1 4 5 5 4 1 3 14 18 20 24 22 24 27 26 20 18 20 19 19 18 17 18 17 17 16 16 15 15 14 14 14 14 14 14 13 13 12 13 13 11 12 12 12 12 12 13 14 15 15 15 16 15 15 15 16 16 16 17 18 18 18 19 19 19 19 18 19 21 20 20 20 22 24
2 3 4 4 0 1 3 5 5 4 3 4 1 2 4 6 6 5 8 6 4 5 2 1 3 4 6 2 2 7 17 15 18 22 20 23 27 22 15 17 22 20 18 17 17 19 18 18 17 17 16 15 15 15 15 14 14 14 14 14 13 13 13 12 12 12 11 12 12 12 13 14 14 14 14 15 15 14 14 14 15 16 17 18 18 18 18 18 18 18 18 19 19 20 21 22 23
2 1 5 1 3 3 4 5 4 4 2 3 4 3 4 5 4 6 8 7 6 6 2 5 2 5 5 0 1 7 12 14 18 19 20 24 24 18 14 18 22 19 18 16 18 20 19 19 18 17 16 16 16 16 16 15 14 14 14 14 14 14 13 12 12 12 11 11 12 12 12 13 13 13 13 13 14 14 13 13 14 14 15 17 18 18 17 17 17 18 18 19 20 21 21 22 23
1 0 5 1 2 3 4 4 2 4 1 4 3 3 4 3 3 4 7 6 3 5 3 4 4 7 3 1 1 4 8 17 20 19 20 21 20 17 14 19 21 18 18 16 17 20 20 19 19 18 17 17 17 17 16 15 14 13 13 14 15 15 14 13 13 13 12 12 11 11 12 12 12 12 13 12 13 13 13 13 14 14 14 15 17 17 17 17 17 18 19 20 21 21 21 22 23
2 0 5 1 3 1 2 3 4 5 1 3 3 4 5 1 2 6 6 7 0 3 1 1 4 4 3 4 4 6 14 21 21 19 19 19 19 17 15 19 20 18 18 16 16 19 21 20 19 19 17 17 17 17 17 16 15 13 13 14 15 15 15 14 13 13 12 12 11 11 11 11 11 12 12 12 12 13 13 13 14 14 15 15 16 16 16 16 17 19 19 20 21 20 21 22 22
2 2 5 2 2 1 1 2 5 5 1 4 3 4 6 2 3 5 1 6 2 2 2 1 1 2 5 5 6 14 23 23 20 19 19 20 20 17 16 18 19 19 18 17 17 18 20 20 19 19 18 18 17 17 16 16 16 14 13 14 15 16 16 15 13 13 13 12 12 11 11 11 11 11 11 11 11 12 12 13 14 15 15 16 16 16 16 17 18 19 19 20 20 20 20 21 21
3 4 4 1 1 1 1 1 3 4 3 4 3 4 6 1 2 2 1 6 5 1 3 1 3 4 4 3 12 25 27 23 21 20 20 20 20 17 16 17 17 19 19 19 18 18 19 20 20 20 19 18 18 17 17 17 16 16 15 15 16 15 16 16 14 14 13 13 12 11 10 10 10 10 11 11 11 11 12 13 14 15 17 17 18 18 18 18 19 19 19 20 20 20 20 21 21
4 3 3 1 1 0 2 3 4 5 5 5 6 5 7 4 1 1 2 5 3 3 3 3 7 7 6 11 20 28 27 24 22 22 21 20 19 17 17 17 18 19 20 20 20 20 20 20 20 20 20 20 19 18 18 18 17 17 17 17 17 16 17 16 16 15 15 15 14 12 11 10 10 10 11 11 11 11 11 12 14 16 18 19 19 19 20 20 20 20 20 20 21 20 20 21 22
3 3 3 2 3 0 3 1 2 3 7 7 6 6 5 5 5 3 2 2 2 5 2 3 6 5 7 13 20 24 26 25 23 24 23 21 21 20 20 19 19 20 21 22 22 22 22 21 20 20 21 21 20 19 19 19 18 19 18 18 18 18 17 17 17 17 16 17 15 13 13 11 10 10 11 11 11 11 11 12 14 16 18 19 19 20 20 21 21 20 20 21 21 20 20 21 22
2 3 3 3 5 2 5 3 2 1 8 8 5 4 3 4 5 3 4 5 4 5 4 3 3 4 6 9 16 21 23 23 23 23 22 21 22 22 23 23 23 24 24 24 24 23 24 24 22 20 20 20 20 20 20 20 20 19 19 19 19 19 18 17 18 18 18 18 15 14 14 11 10 11 12 12 12 12 12 12 14 16 18 18 19 20 20 20 21 21 20 21 21 21 21 22 23
1 3 4 5 3 2 4 3 3 2 7 9 5 5 4 4 4 3 6 5 3 6 7 8 9 10 11 9 13 19 20 20 21 21 21 21 21 22 25 27 28 28 25 24 23 24 25 25 25 23 21 21 21 22 22 22 21 21 20 20 21 21 20 19 19 19 19 19 16 15 15 12 10 13 14 13 13 13 13 13 15 16 18 19 19 19 19 19 20 21 20 20 21 22 22 23 24
2 1 4 3 2 3 4 3 5 4 5 6 6 5 3 3 3 4 8 6 5 7 8 11 11 11 15 13 14 16 16 18 19 20 21 22 23 23 25 26 26 26 25 24 25 25 26 26 26 24 23 22 22 22 23 23 22 23 22 21 22 22 22 21 20 20 21 20 19 17 15 13 12 14 15 14 13 13 14 15 16 18 19 20 19 19 19 18 19 20 20 20 22 22 24 25 26
3 1 1 3 3 4 2 2 5 4 7 6 4 2 1 4 2 3 6 7 7 6 7 9 8 12 19 17 15 14 13 15 19 23 24 24 25 25 26 26 26 27 27 28 27 26 26 26 27 26 25 24 23 23 23 23 23 24 24 23 23 23 23 22 21 22 23 23 22 19 17 16 14 15 16 15 14 14 15 16 18 20 20 20 19 18 17 17 17 19 20 21 22 24 26 27 27
5 1 1 3 4 4 1 0 2 5 7 2 2 2 2 5 3 1 3 7 7 6 5 7 7 13 19 15 13 14 15 18 21 26 27 27 29 28 28 28 28 28 28 29 29 28 28 28 29 28 27 26 25 24 24 24 24 25 24 24 24 24 25 24 23 23 24 25 23 21 20 19 17 16 17 15 14 15 16 18 20 21 21 20 17 16 16 15 16 18 20 21 23 24 27 28 28
3 2 2 2 3 2 1 2 3 4 4 1 4 2 2 5 4 1 6 9 7 7 4 8 10 13 14 12 13 12 13 17 21 23 24 26 27 27 26 26 28 28 28 29 31 30 29 29 30 31 30 28 27 25 25 24 25 27 27 25 25 25 25 24 24 23 25 27 25 23 23 22 20 17 17 17 15 16 17 19 21 22 20 18 16 15 14 14 16 18 20 22 23 25 27 28 28
2 4 4 4 3 2 2 3 2 1 1 3 4 2 5 2 3 2 8 10 7 6 6 8 10 10 10 10 12 12 11 15 19 21 24 26 24 24 25 26 27 29 29 29 30 32 30 29 30 32 33 31 29 27 26 25 25 28 29 27 26 26 26 25 26 25 25 28 27 25 24 24 23 20 19 18 18 19 19 20 22 21 19 17 16 14 13 14 16 19 21 23 24 26 26 27 28
2 5 5 6 5 3 3 2 2 1 1 2 4 3 5 2 1 3 8 9 6 7 6 7 9 9 10 9 10 13 13 17 22 22 21 21 23 25 26 26 29 31 30 29 30 31 30 30 30 31 34 34 32 29 28 27 26 28 28 27 27 27 26 26 27 27 26 28 28 27 26 26 24 21 20 20 20 21 21 22 23 21 19 17 15 15 15 14 17 20 22 24 25 26 27 27 27
3 7 5 3 4 1 1 3 3 1 1 2 5 1 4 3 1 6 8 6 4 9 8 7 8 8 9 9 9 10 12 19 23 20 19 22 26 29 29 30 31 31 32 32 32 31 30 31 30 30 32 34 34 33 31 28 27 28 26 26 27 27 27 28 29 29 28 28 28 28 28 27 26 23 21 21 22 23 22 23 22 20 18 18 17 16 17 17 18 21 23 24 25 26 27 26 27
4 7 5 0 2 1 3 3 3 2 0 4 4 3 6 1 6 10 7 3 4 8 8 7 8 7 7 8 7 7 12 17 18 20 24 28 30 31 32 34 33 32 33 33 32 32 31 31 31 30 30 32 34 34 34 30 27 28 27 25 26 26 29 30 30 30 29 29 28 28 28 28 28 26 24 23 23 24 24 23 22 20 18 18 18 18 19 19 20 23 24 25 26 26 27 27 26
2 3 5 2 4 4 6 2 2 3 0 3 3 1 7 6 10 11 6 4 5 7 8 7 7 7 7 7 6 7 11 13 16 23 28 29 30 31 33 35 34 33 32 32 33 33 32 31 31 31 31 32 32 32 34 33 29 28 27 26 25 27 29 30 30 30 30 30 29 28 29 29 29 28 27 26 26 26 25 24 23 21 20 19 20 21 21 21 23 25 26 27 26 26 27 26 27
2 1 2 3 2 4 7 1 5 4 1 1 6 2 7 8 11 11 5 7 8 7 7 6 6 6 6 7 7 8 10 14 20 25 28 28 30 31 32 33 34 34 32 32 34 33 32 31 31 32 33 33 33 31 32 33 31 29 28 27 26 27 29 29 31 32 31 31 30 29 30 30 31 30 29 28 28 28 27 26 23 23 23 21 22 23 22 23 24 26 28 29 28 27 27 26 26
3 2 3 2 3 4 6 1 6 5 2 2 6 2 6 8 9 9 4 6 9 7 7 6 7 7 7 7 8 8 9 14 20 24 26 29 30 31 33 33 33 35 34 33 33 32 31 31 31 32 33 34 35 34 32 32 32 30 29 28 27 27 28 28 30 31 31 31 31 31 31 31 32 33 31 30 31 30 29 27 25 24 25 24 24 25 24 25 26 27 28 30 31 29 27 26 25
3 3 2 3 3 2 4 3 2 5 2 0 2 2 4 5 6 7 5 3 7 7 7 7 8 8 8 7 8 8 8 9 13 19 25 28 31 32 33 33 33 35 35 34 33 33 33 32 32 32 32 33 35 35 35 33 31 29 27 26 27 27 27 27 28 30 30 31 31 32 33 32 33 34 34 33 32 31 30 30 27 25 26 27 27 27 26 26 27 28 29 29 31 31 30 28 26
4 1 2 4 3 3 2 3 3 4 5 2 2 3 6 7 7 8 7 3 6 7 8 9 8 8 8 8 8 8 8 8 9 17 26 29 31 33 33 33 33 34 35 36 35 34 34 34 34 33 32 32 33 34 35 35 33 29 25 23 24 25 25 26 27 29 31 31 31 33 34 35 36 37 36 35 34 32 30 31 31 28 28 29 29 29 28 27 27 29 31 29 30 32 32 30 29
3 3 2 3 1 3 3 3 3 4 4 2 2 4 9 12 11 10 10 6 7 8 9 9 9 9 9 8 8 7 8 9 12 20 28 30 31 32 32 31 31 33 34 35 36 35 35 35 34 34 33 33 34 33 34 34 33 31 28 24 22 23 25 26 27 28 30 31 32 34 35 36 38 38 37 37 36 34 32 33 33 31 30 31 33 32 30 29 29 30 32 31 30 31 32 32 31
7 5 5 3 1 2 4 3 2 4 3 4 5 6 9 10 11 10 11 9 7 9 9 8 9 9 9 8 8 8 9 11 15 22 27 29 31 32 31 31 31 32 33 33 35 35 35 35 35 35 35 34 34 33 32 33 32 31 30 28 26 25 27 28 29 29 29 30 31 33 33 35 38 38 37 36 36 36 34 35 34 33 33 34 35 34 33 33 33 33 33 33 32 30 30 31 32
7 5 4 3 2 2 4 2 3 2 2 5 7 7 9 9 11 11 11 10 8 9 9 9 10 9 9 9 9 9 10 10 13 19 23 27 30 31 30 30 29 30 31 32 33 35 36 36 36 36 36 35 35 34 34 34 34 33 32 32 31 29 28 29 30 30 30 30 29 30 32 34 37 37 37 36 37 37 35 34 35 35 35 37 37 36 35 35 35 35 34 34 34 33 32 31 33
6 5 4 3 0 2 4 2 3 2 1 5 4 5 11 10 10 11 9 9 11 12 11 11 11 9 8 9 10 10 9 7 6 11 17 23 26 27 28 28 29 30 31 33 34 34 34 35 36 37 36 37 37 37 37 37 37 36 35 34 33 31 30 30 31 31 31 30 29 29 31 33 36 37 37 37 38 38 37 36 37 37 37 39 38 36 36 37 37 37 37 35 33 34 34 33 36
5 4 5 2 2 2 3 3 3 2 1 4 4 5 12 12 9 11 11 11 13 12 10 11 10 9 10 10 10 10 9 8 6 7 11 19 23 25 27 28 30 31 30 31 32 32 32 33 35 35 36 37 38 38 38 37 36 35 32 31 31 31 30 31 31 31 31 31 31 30 30 30 33 36 36 38 40 38 36 37 37 37 39 41 39 37 37 39 39 39 40 38 34 33 32 36 38
4 4 5 1 3 1 2 4 4 2 1 3 5 5 10 12 8 10 12 12 13 12 10 10 9 10 12 11 9 9 10 9 8 7 7 13 19 22 25 27 28 28 27 29 30 32 33 34 34 35 35 36 37 37 37 36 33 31 29 28 28 29 29 29 29 29 30 32 34 34 34 31 30 34 35 37 39 38 36 36 37 38 41 43 42 40 40 41 41 41 40 40 39 35 32 36 35
1 3 5 3 3 3 3 2 3 3 4 3 5 6 7 7 6 8 7 5 9 11 10 11 11 11 11 9 8 9 10 9 8 7 7 10 15 21 24 25 25 26 28 30 32 33 35 35 35 35 35 34 35 35 34 33 31 29 28 25 24 25 25 25 27 29 31 32 35 36 37 35 32 33 36 38 38 37 37 36 38 40 42 44 43 43 44 44 43 42 40 40 42 40 37 38 33
4 2 5 6 5 4 2 3 4 5 5 3 3 4 6 6 5 8 6 3 6 6 6 11 12 9 9 8 9 9 9 8 7 7 8 10 14 17 19 21 24 27 29 31 32 33 34 34 34 34 33 33 33 33 33 32 31 30 29 27 26 26 25 27 30 32 32 33 34 35 35 35 35 33 35 39 39 38 37 37 39 41 43 46 45 45 44 44 44 43 43 42 42 41 39 38 33
1 4 4 6 6 6 4 5 4 1 4 3 2 1 6 7 6 10 9 7 8 7 7 11 10 8 8 8 9 9 8 8 6 5 7 10 12 14 16 21 25 28 29 30 30 31 31 32 32 33 32 32 32 32 32 32 32 31 31 31 31 30 29 31 32 31 30 31 32 32 32 33 35 35 35 37 38 37 35 37 40 42 44 46 44 44 44 45 45 45 45 44 42 40 39 40 37
3 5 2 5 7 5 4 6 3 3 3 5 1 3 4 6 7 11 12 10 10 9 10 12 9 8 8 8 9 9 8 7 6 6 7 8 12 16 19 23 26 27 27 28 28 30 30 30 31 32 32 32 32 32 32 32 33 32 32 32 32 32 31 30 30 28 28 28 29 30 31 32 34 36 35 35 36 36 36 39 42 43 45 46 44 44 45 45 46 44 43 43 42 40 40 41 40
5 5 4 6 7 6 5 6 2 1 2 5 4 2 2 7 7 6 6 7 9 10 13 13 10 9 8 8 9 8 7 7 7 7 7 8 14 19 22 24 25 26 25 26 27 28 29 29 30 30 31 31 31 31 31 32 32 32 32 32 32 31 29 27 26 27 27 26 27 29 30 31 33 35 37 37 37 38 40 41 43 44 45 46 46 45 44 45 44 43 43 43 41 41 41 40 40
4 2 6 6 5 5 5 5 2 3 2 5 5 5 2 6 6 2 2 3 8 10 10 10 9 9 8 7 7 5 4 5 5 4 7 10 16 20 21 21 22 23 23 24 25 26 27 28 29 30 30 30 30 31 31 32 32 32 32 32 31 29 27 26 23 24 26 26 27 29 30 31 33 36 38 38 38 39 41 42 43 44 45 46 46 45 44 45 44 44 45 45 43 42 40 39 38
5 5 7 7 6 5 4 3 4 3 4 6 8 9 4 4 5 4 4 4 8 7 6 7 8 7 6 5 4 5 5 5 4 3 4 8 13 16 17 18 19 21 21 22 24 25 27 28 29 29 30 29 30 30 31 32 32 33 33 32 32 30 28 26 25 25 26 27 28 30 32 33 34 36 37 36 37 38 39 41 41 43 43 45 46 44 44 45 45 45 45 44 43 42 41 39 37
7 5 5 4 4 5 5 5 4 1 5 7 7 6 4 5 6 3 5 6 5 7 6 6 7 5 4 5 5 5 5 5 5 5 5 6 8 11 14 16 17 19 21 22 24 25 26 28 29 29 29 29 30 31 31 32 33 33 33 32 32 30 27 27 27 26 27 28 29 31 33 34 34 35 36 36 37 37 38 39 40 41 42 44 45 44 43 44 44 43 43 42 41 40 40 39 37
5 5 6 4 2 3 3 3 0 3 6 6 4 1 3 7 6 5 7 8 6 7 7 6 6 5 5 6 6 5 5 5 6 5 5 6 6 9 13 15 17 19 22 23 24 25 27 28 28 29 30 30 30 31 32 33 33 33 33 32 31 29 27 27 27 27 28 28 30 32 34 36 36 35 36 37 38 38 38 39 40 42 42 44 45 45 44 43 42 42 42 42 41 40 40 39 38
4 5 6 4 3 1 3 3 2 4 5 5 2 1 3 5 4 7 9 8 7 6 6 7 7 7 7 7 6 6 5 5 6 6 6 6 6 10 13 16 18 20 22 23 25 26 27 28 28 29 30 30 31 32 33 33 34 33 33 32 31 29 28 28 28 29 29 30 31 33 35 36 37 37 37 37 38 39 39 40 41 42 43 44 45 45 44 43 43 43 42 42 41 41 41 40 39
5 5 6 6 5 5 5 4 3 5 4 4 3 1 3 2 3 7 7 7 7 6 6 7 6 5 4 4 5 5 6 6 5 5 6 7 9 12 15 16 18 20 22 24 25 26 27 28 29 30 30 31 31 32 33 34 34 33 33 32 31 30 30 30 30 31 32 32 32 33 35 35 35 35 35 35 37 39 40 41 42 42 43 43 44 44 43 43 43 43 43 43 42 42 41 40 40
3 3 5 4 6 5 3 3 6 4 2 3 2 4 5 4 6 8 6 8 8 6 7 6 7 7 3 3 5 5 5 6 5 6 7 8 10 13 16 17 19 21 22 24 25 26 28 28 29 30 30 31 32 33 34 34 34 34 33 33 32 31 31 30 31 32 33 34 34 35 35 35 34 33 33 34 36 38 40 41 41 42 42 43 43 43 43 43 43 43 43 43 42 42 40 39 39
2 3 4 5 5 7 3 3 0 3 2 4 2 6 6 3 7 9 8 11 10 6 7 6 8 8 5 6 7 5 5 6 6 7 8 8 10 14 18 20 21 22 23 25 26 27 28 28 29 30 30 31 32 33 33 33 33 34 34 33 33 32 32 32 32 33 33 33 34 34 34 34 34 33 34 35 37 38 40 40 41 41 41 41 43 43 43 43 43 43 43 43 43 42 39 38 38
6 4 6 3 2 3 3 1 2 2 4 5 2 7 7 2 5 5 1 7 9 7 8 8 9 7 6 8 8 6 6 6 7 8 7 7 10 15 18 21 23 24 25 25 26 26 27 28 29 30 31 32 33 33 33 33 34 34 34 33 33 33 33 32 32 32 32 32 33 34 34 34 35 35 36 37 39 40 41 41 41 41 41 41 42 43 43 43 42 42 42 43 43 42 39 38 38
5 5 4 4 2 1 2 2 2 1 3 5 3 5 5 6 7 3 2 6 8 9 9 8 10 9 8 8 8 7 5 5 6 6 7 6 9 14 18 21 23 24 24 24 24 24 26 28 29 30 31 32 32 32 32 33 34 34 34 33 33 32 32 32 32 32 33 33 34 34 34 34 35 36 38 39 39 40 40 41 42 42 42 41 40 42 43 42 42 41 41 41 41 40 39 39 38
1 1 1 2 3 4 3 3 4 4 4 5 4 3 4 6 7 6 8 11 11 11 10 9 11 10 8 7 8 7 6 5 6 6 7 6 9 16 20 21 22 23 23 23 22 24 26 28 29 31 31 30 30 31 33 34 34 34 34 33 32 32 31 32 32 33 34 35 36 35 34 34 35 35 37 38 38 38 39 40 42 42 42 41 39 39 41 42 41 41 41 41 40 40 39 39 39
3 3 4 2 1 2 2 2 3 4 4 3 4 6 7 5 5 8 11 12 12 12 10 9 10 9 8 7 7 7 6 6 6 6 7 6 9 15 19 19 19 20 21 22 21 23 26 27 30 31 30 30 31 32 34 35 35 35 34 34 33 32 31 31 33 33 34 35 36 36 35 35 34 34 35 36 37 38 39 40 42 42 42 42 41 41 41 41 41 41 41 41 41 41 41 40 39
8 7 8 8 6 5 3 4 2 2 3 5 3 8 10 5 5 7 9 9 10 9 9 8 8 7 8 7 7 7 6 7 7 7 6 6 8 13 15 16 16 18 21 22 20 21 25 27 29 29 30 31 33 34 34 35 35 36 36 35 34 33 31 31 33 34 34 35 36 36 36 35 34 34 34 35 36 38 39 40 42 42 43 43 43 42 42 42 42 41 41 41 42 42 42 42 41
Wind_Direction
316 318 317 329 3 352 332 79 54 323 80 79 96 99 244 178 110 95 73 51 62 341 292 94 73 61 85 113 126 116 73 95 172 144 176 156 137 140 153 153 148 149 148 141 138 131 128 132 133 133 133 134 130 127 125 123 122 121 123 119 112 110 104 98 97 96 89 84 79 75 73 77 81 82 85 88 90 90 89 89 92 95 91 88 88 84 76 72 75 82 84 87 93 94 91 89 87
323 322 339 349 360 10 296 100 80 343 61 54 353 121 172 42 57 91 108 90 125 197 158 101 89 82 100 125 130 94 44 12 94 118 116 132 134 137 143 146 146 150 150 143 140 134 130 131 133 132 133 137 133 129 127 124 122 121 123 117 115 111 105 101 100 98 90 85 80 75 74 80 85 87 88 89 91 90 92 95 91 92 93 90 88 85 80 75 78 84 86 92 96 94 92 90 88
329 328 8 15 360 71 14 40 88 74 71 95 296 272 89 79 98 126 122 123 154 162 115 73 67 81 89 94 70 72 101 26 96 94 118 137 139 144 147 147 145 149 152 146 143 139 133 132 133 133 133 135 133 132 129 126 126 125 124 118 117 113 106 105 104 99 91 88 82 78 78 83 89 91 91 91 92 90 96 103 100 93 93 92 88 88 85 81 83 86 89 95 98 94 91 90 86
339 349 350 21 35 22 53 44 123 110 101 145 201 290 95 118 140 124 126 148 161 126 101 64 47 345 79 95 88 81 125 120 117 121 135 150 147 147 149 148 144 146 150 148 147 142 137 135 136 138 136 135 134 134 131 128 129 127 123 118 119 115 109 108 107 103 95 91 85 81 83 87 92 95 95 93 92 91 91 98 104 99 94 93 90 88 84 84 86 88 93 96 97 94 92 89 83
334 356 325 28 74 10 83 62 91 92 135 181 135 150 138 137 137 123 124 124 87 77 74 94 82 308 66 93 126 104 126 116 128 131 139 152 147 145 148 147 143 144 151 151 151 148 142 140 139 142 140 138 137 135 134 131 130 129 125 121 119 116 112 111 109 106 99 92 86 84 85 88 92 98 97 93 91 91 85 85 97 99 96 94 92 88 84 86 87 93 99 99 98 96 93 89 82
341 3 328 129 134 177 85 62 73 70 204 169 125 160 159 139 135 128 103 44 35 55 64 88 114 91 65 24 58 93 154 135 134 139 148 153 149 146 148 148 143 148 157 158 157 153 147 145 144 144 144 142 141 138 136 133 133 132 129 125 122 118 115 111 108 105 99 92 87 86 87 87 91 99 101 97 93 92 91 87 90 93 92 91 89 88 87 88 90 98 103 102 100 97 93 89 83
353 2 24 77 335 38 86 106 125 86 15 120 129 157 155 138 136 125 114 74 20 17 41 67 122 100 81 80 74 15 68 147 142 143 150 153 152 146 148 151 148 154 162 163 161 156 151 152 150 149 148 146 144 142 139 137 137 136 132 129 126 123 119 113 109 106 100 94 90 88 89 89 93 100 105 103 96 95 98 96 94 93 91 91 90 89 90 91 94 101 105 105 101 97 94 89 86
356 341 96 83 10 23 86 112 144 142 34 65 127 146 145 144 138 129 145 137 93 312 32 20 88 89 56 70 101 356 82 136 141 143 147 150 155 149 150 154 153 159 165 165 162 158 156 156 155 153 151 149 148 146 144 142 140 140 136 133 131 129 125 120 115 113 109 103 98 96 95 95 98 102 106 106 101 97 100 101 100 97 93 93 94 90 90 91 94 102 106 105 102 98 95 90 89
90 171 11 78 62 17 61 72 66 132 88 76 114 136 143 148 141 135 144 139 147 143 181 203 92 105 131 58 94 341 90 129 139 145 150 152 156 154 152 153 158 164 165 166 164 161 161 160 160 156 153 153 153 152 149 147 144 143 140 138 137 135 132 127 122 120 118 112 106 104 102 102 103 105 107 108 107 104 102 102 99 98 96 94 95 93 92 93 94 101 107 106 103 98 93 89 89
60 145 40 80 47 32 46 4 72 112 131 124 125 144 151 151 142 139 133 134 141 116 211 198 98 115 133 88 118 220 135 143 142 147 157 158 158 157 154 153 163 168 164 167 166 166 165 163 164 160 157 156 157 156 155 152 149 147 145 144 144 141 137 134 129 126 126 119 114 112 109 107 108 109 109 110 111 109 107 106 104 101 97 97 96 95 95 95 93 97 107 109 104 97 91 90 88
32 324 82 76 32 49 150 153 124 124 152 126 97 152 157 148 132 129 125 120 119 122 194 61 93 128 104 98 251 163 149 154 154 154 158 160 158 158 154 155 170 173 168 169 169 170 167 166 167 165 162 160 162 160 160 157 154 153 151 151 150 148 143 141 135 131 132 126 121 117 114 111 111 111 111 111 112 111 110 110 112 109 105 104 100 98 97 94 94 95 105 112 105 97 94 94 93
56 316 68 82 106 157 156 144 148 136 124 114 102 221 145 118 112 125 128 125 124 122 184 155 133 136 95 81 251 153 151 159 163 160 161 161 159 157 153 162 173 176 174 172 170 172 170 168 168 168 167 164 164 164 164 161 160 160 158 158 157 154 150 148 142 136 137 132 127 121 118 115 114 113 111 111 110 112 112 110 115 117 114 111 105 101 99 96 97 98 108 115 106 100 100 100 98
105 280 78 106 209 139 131 139 159 126 110 174 178 207 113 97 137 164 142 131 135 121 202 215 151 87 99 54 152 158 163 166 161 158 161 160 161 155 148 163 172 175 176 173 171 174 173 170 169 169 169 167 166 166 167 166 166 165 165 166 161 159 156 155 149 143 143 139 134 128 124 120 118 116 112 111 111 113 112 109 111 114 114 110 107 104 101 101 99 102 113 115 109 105 104 103 102
149 198 102 181 282 116 140 126 146 119 191 238 182 162 113 104 168 150 126 112 123 147 204 234 118 89 106 95 144 194 177 170 163 157 156 157 161 156 148 159 169 172 173 174 174 176 175 172 172 170 171 170 168 167 168 169 170 169 170 170 165 162 160 160 156 151 150 146 141 135 130 126 123 119 115 114 113 115 113 111 112 113 112 107 107 106 106 106 104 109 117 117 113 111 108 107 105
169 156 96 102 341 9 167 128 145 128 151 226 180 150 102 96 117 76 114 125 270 228 197 355 98 97 160 162 212 202 167 167 165 159 158 159 163 161 154 151 159 168 170 175 176 178 178 176 175 173 174 173 171 171 170 170 171 172 172 172 168 163 164 164 160 156 153 149 145 139 134 129 127 123 119 117 116 117 115 115 116 116 115 113 113 112 113 113 112 117 121 119 119 116 112 111 109
134 99 74 50 333 313 232 130 121 111 181 201 176 127 92 334 81 78 171 136 132 284 40 33 47 103 162 184 199 166 159 163 161 163 162 162 165 164 161 152 152 162 169 176 175 177 180 180 178 176 178 178 178 174 172 172 171 173 174 175 171 167 168 167 162 159 156 152 149 143 140 136 132 128 123 120 119 119 118 119 122 122 122 121 120 119 119 118 118 121 123 123 125 121 116 115 114
62 74 73 15 270 206 261 203 143 142 196 195 181 133 118 294 26 84 309 89 116 88 57 49 12 66 136 166 155 152 156 159 160 165 161 161 167 164 166 164 157 161 169 176 177 177 181 184 182 182 183 182 182 179 176 175 173 175 177 178 176 173 172 170 165 162 160 157 154 152 150 147 141 136 131 127 125 123 122 123 127 128 128 127 127 126 124 123 123 125 126 127 130 126 120 119 118
59 80 100 238 228 139 283 233 187 148 155 183 192 159 131 158 177 138 57 56 91 98 82 70 36 39 86 120 139 147 154 158 162 165 161 162 169 168 171 174 170 170 173 176 180 181 182 187 185 185 188 186 186 184 181 179 178 179 180 180 180 179 176 174 170 166 166 163 162 165 163 157 151 146 141 136 131 127 127 128 132 134 134 134 134 131 128 127 127 129 130 132 134 131 126 122 121
99 111 101 216 199 63 314 250 149 130 153 176 194 174 146 170 167 140 145 171 136 115 123 78 64 50 89 122 139 149 157 160 165 167 167 168 172 175 176 179 179 180 182 181 184 184 184 188 187 186 189 190 190 189 186 183 183 182 182 183 182 183 182 179 173 170 172 170 171 176 171 167 164 158 150 143 137 132 133 134 137 140 141 141 138 135 132 131 131 132 133 135 138 136 130 125 124
147 105 92 241 196 140 340 13 15 205 154 156 192 179 152 176 150 141 166 166 166 167 182 131 139 182 154 149 150 156 163 166 170 170 173 176 178 181 181 184 185 187 190 188 187 187 188 189 188 189 191 192 192 192 190 188 187 186 185 186 185 185 185 184 177 174 177 176 177 179 175 176 178 168 157 150 145 140 139 140 142 145 144 144 142 140 138 137 136 135 135 137 139 138 133 129 128
116 108 153 233 172 113 319 339 355 352 140 150 163 126 130 176 145 148 147 136 219 226 204 187 193 186 171 174 166 166 170 174 177 177 179 181 184 187 187 190 190 191 193 191 191 191 192 192 189 188 193 196 194 194 193 192 192 190 188 188 187 187 187 186 182 179 179 178 180 182 179 181 181 171 164 156 151 146 144 145 146 148 147 145 146 146 143 142 140 138 139 138 137 138 135 132 132
69 104 166 222 130 116 286 314 1 10 110 116 111 113 153 158 134 158 146 150 225 232 211 200 199 178 170 175 172 173 176 180 185 185 187 187 189 192 193 195 194 194 194 195 197 196 196 196 192 188 193 198 197 197 195 194 195 194 193 192 189 188 189 188 186 183 181 178 180 185 182 180 179 173 168 161 156 154 150 149 149 150 150 149 152 152 147 146 145 144 143 139 137 138 135 134 133
102 209 54 18 96 126 252 328 357 32 88 92 113 146 132 107 145 204 161 184 213 213 190 187 203 178 166 165 165 173 183 187 192 193 192 191 193 194 195 196 195 195 197 200 202 203 201 198 195 191 192 197 198 198 196 195 197 198 197 195 192 191 190 191 190 185 182 180 181 187 187 183 182 176 172 166 161 160 156 154 153 154 155 155 159 158 154 152 150 149 147 142 139 138 136 136 134
103 161 17 48 82 106 193 157 22 59 90 138 138 108 116 131 168 283 217 224 217 213 174 139 152 153 152 155 167 181 187 191 197 199 197 195 197 197 196 197 196 195 199 203 204 206 206 202 198 193 193 196 196 197 197 197 198 199 200 198 198 196 194 195 194 189 184 183 185 191 193 190 188 182 178 173 169 166 161 159 157 158 160 162 166 166 162 157 154 153 150 146 143 140 138 137 137
90 148 180 115 88 113 171 98 61 60 83 97 78 86 217 171 158 190 242 243 227 211 161 116 120 133 147 162 177 186 190 195 200 202 202 203 202 200 199 200 198 197 201 204 204 206 208 206 202 198 196 196 197 197 197 199 198 199 200 200 200 199 198 199 198 193 187 186 189 193 196 194 192 190 186 182 178 171 166 163 161 163 165 169 172 174 171 161 154 154 153 150 147 144 140 139 139
198 151 151 124 121 167 139 85 70 77 45 64 79 313 289 203 175 241 244 238 219 176 136 131 130 139 163 173 182 188 191 198 201 202 205 206 204 202 202 202 200 201 204 205 204 206 207 206 204 201 200 200 199 198 199 199 199 199 200 201 201 199 201 202 200 197 192 190 194 197 199 198 195 194 191 187 182 177 171 167 167 170 173 178 181 178 174 167 157 154 155 152 149 147 144 142 141
186 127 121 124 145 183 136 132 216 149 22 94 113 261 291 307 246 262 257 246 200 156 152 157 147 159 180 183 190 193 193 200 201 199 201 202 203 205 204 203 203 204 205 205 205 207 207 206 206 203 203 204 201 200 201 201 201 201 200 201 201 199 201 203 201 200 197 195 198 200 200 198 197 198 195 189 186 182 176 173 174 178 182 186 190 181 173 168 160 157 157 154 152 149 145 145 145
123 110 93 112 139 204 113 144 210 142 48 162 123 278 299 7 302 233 246 257 175 163 179 176 168 183 190 192 198 195 203 207 202 194 191 198 203 205 204 204 204 205 205 206 207 206 205 205 206 205 203 204 204 204 203 202 203 202 202 202 202 203 203 203 202 201 201 200 201 203 201 198 198 200 199 192 189 186 181 180 182 185 188 191 192 184 172 167 163 160 158 156 154 151 147 146 147
100 102 94 338 51 343 237 179 198 140 79 216 124 355 308 268 235 244 241 234 151 161 183 189 190 202 198 204 204 201 213 209 198 195 199 203 204 205 205 206 205 205 207 208 208 206 205 205 205 206 204 204 205 206 205 203 203 203 205 205 204 206 203 202 203 201 202 203 204 204 203 201 198 199 200 196 193 191 187 186 189 189 193 195 190 182 172 168 166 160 157 156 154 152 149 147 148
89 93 101 97 26 314 252 206 154 131 102 238 121 359 284 257 249 262 248 180 145 159 190 200 203 213 210 213 213 217 220 206 199 205 208 208 208 208 209 210 208 207 207 206 206 206 206 205 205 205 204 203 203 204 204 203 204 205 206 208 208 209 205 203 204 203 203 204 206 206 204 202 200 200 200 198 195 194 192 191 194 194 196 197 188 180 175 171 168 162 159 158 155 154 151 151 152
90 56 56 93 104 284 282 207 146 143 310 27 95 165 266 276 271 279 259 175 157 182 211 218 220 224 221 220 220 226 223 210 209 211 211 212 212 213 214 214 211 209 208 205 205 205 205 206 205 204 203 203 201 200 202 203 206 208 208 212 212 209 209 208 206 203 203 205 207 206 207 205 201 200 201 200 197 196 195 193 196 198 198 197 187 180 177 173 169 165 163 161 156 155 153 153 153
67 92 325 338 147 259 304 288 160 160 264 49 98 186 269 278 276 293 298 150 153 192 226 238 239 236 231 231 227 228 229 220 217 215 213 214 215 216 217 216 213 211 210 207 205 204 206 207 207 206 205 205 204 203 202 202 207 210 210 212 211 210 211 212 210 206 204 206 208 207 208 208 201 201 202 202 199 197 197 195 196 201 199 194 187 182 179 176 172 167 166 166 161 157 155 153 152
1 113 226 270 154 228 301 303 214 151 140 278 150 215 269 276 274 300 320 137 155 195 229 238 238 240 235 231 228 226 230 228 224 220 216 214 216 219 219 218 215 213 211 209 206 205 206 207 207 208 207 206 205 205 203 202 203 205 206 205 206 209 211 214 215 214 211 209 211 209 210 210 205 203 203 203 202 200 200 198 196 201 200 193 187 184 182 180 176 169 165 168 165 160 157 153 150
311 70 215 245 175 172 236 282 275 123 114 221 229 230 250 267 279 293 297 229 178 205 232 237 235 238 237 232 231 226 221 223 224 220 216 214 216 219 221 220 217 214 212 210 209 209 208 207 207 208 208 206 204 205 205 204 203 203 205 205 206 209 212 216 216 216 215 214 214 213 212 212 207 205 204 202 203 203 204 202 198 200 200 193 188 185 183 181 177 171 165 165 166 162 158 154 150
203 199 202 267 238 177 204 244 237 144 124 220 224 248 254 266 278 282 280 251 209 222 232 238 240 237 240 238 233 227 220 224 225 219 217 216 216 218 220 219 217 214 212 211 210 210 210 208 208 208 208 206 205 205 205 205 206 206 209 211 213 213 213 216 216 215 216 215 217 217 215 211 205 204 204 201 201 203 204 204 200 198 198 193 187 183 182 178 173 171 167 164 163 161 160 156 150
161 175 157 157 176 250 241 249 238 146 137 237 226 239 253 261 271 274 275 265 233 235 239 243 247 243 243 243 240 232 224 229 230 223 218 217 217 217 217 217 216 214 213 211 209 209 209 208 207 206 207 206 205 204 204 204 205 206 209 212 216 216 213 213 213 214 215 215 218 220 216 210 205 203 204 202 202 204 204 204 200 197 197 193 187 184 181 179 175 172 170 166 162 157 157 156 152
126 118 105 131 138 297 278 262 296 95 127 247 232 242 258 256 263 263 265 273 263 249 246 244 243 243 243 242 245 237 231 237 234 225 220 217 217 216 214 214 212 211 211 211 209 208 209 208 205 204 205 204 204 203 202 203 203 204 206 210 213 214 212 211 211 212 213 214 216 217 213 209 206 204 205 206 204 205 205 204 202 198 197 194 192 190 186 181 178 175 171 169 166 160 156 156 156
93 108 83 11 329 266 275 249 300 16 85 265 270 279 271 257 256 262 264 269 264 249 243 246 244 242 243 242 244 241 242 252 232 220 219 215 213 212 210 208 207 206 208 209 209 208 208 208 206 205 204 204 205 206 206 207 208 207 207 209 212 212 212 212 213 212 212 213 213 211 207 205 206 206 207 207 205 204 203 202 202 201 200 197 193 189 185 181 177 175 171 168 169 165 162 162 161
84 104 101 6 277 246 305 331 334 15 104 271 312 313 282 271 254 254 253 247 253 250 240 244 244 245 248 242 243 246 254 263 249 230 214 207 207 205 204 205 205 207 205 204 206 206 206 208 209 208 208 207 209 211 212 212 213 212 212 212 213 213 215 216 217 216 215 214 213 210 206 203 205 206 208 207 205 205 205 204 204 203 201 197 191 184 181 180 176 176 176 172 169 167 167 168 169
87 103 115 238 273 193 284 312 312 294 230 283 319 316 284 284 275 257 251 242 251 259 254 251 241 236 245 245 242 242 246 251 249 240 208 197 199 198 200 202 202 203 202 201 203 205 206 209 211 211 211 212 213 214 215 216 216 214 213 215 214 214 217 218 219 220 219 218 218 216 212 208 205 206 209 208 205 205 207 209 208 206 202 196 191 185 182 181 180 179 179 176 171 167 169 172 174
337 133 140 199 248 187 197 284 316 327 344 338 340 328 290 291 295 275 275 268 258 260 261 261 252 240 247 259 254 238 237 240 233 221 193 183 192 195 197 199 198 198 201 203 204 207 209 210 213 214 214 214 214 215 216 216 214 211 209 209 210 212 216 218 218 220 221 220 221 221 219 216 212 208 209 209 208 207 208 211 212 209 202 196 193 190 187 185 184 183 181 180 179 176 174 175 178
311 237 182 185 177 151 118 23 28 18 339 321 28 352 294 302 304 277 291 312 271 267 257 252 256 253 250 259 257 245 241 240 225 204 188 186 191 191 192 194 196 199 204 207 208 210 211 212 213 215 215 214 215 216 216 215 213 210 207 205 205 206 210 215 218 220 220 220 222 225 224 222 218 215 211 209 211 210 210 212 212 210 203 197 194 192 189 186 186 187 187 186 186 184 177 175 180
269 258 215 173 132 101 78 54 54 62 269 267 90 122 270 299 292 265 268 270 268 282 273 254 256 259 247 246 250 247 245 241 227 202 188 186 184 180 187 195 198 203 208 210 211 212 213 214 214 215 216 215 214 215 215 215 214 213 212 211 210 210 211 216 220 222 223 223 225 226 225 221 218 218 215 210 210 211 214 215 214 210 204 197 193 191 190 189 190 191 191 190 190 188 181 178 181
222 259 175 127 102 98 106 86 93 212 261 304 339 157 254 288 263 251 254 259 273 279 269 262 259 256 250 245 245 244 236 228 216 200 189 186 184 184 192 199 203 208 210 210 211 213 214 215 215 216 217 216 215 215 215 216 215 215 215 215 216 216 217 220 222 222 224 226 226 224 221 218 217 217 217 214 212 214 218 217 212 208 202 197 195 194 193 192 192 191 191 191 191 192 190 186 184
240 242 121 110 107 116 111 93 100 298 3 312 291 156 245 271 258 261 252 248 266 262 253 256 259 257 252 246 247 248 233 219 210 195 187 187 190 195 200 204 208 211 211 211 212 214 215 215 216 217 217 217 216 215 215 217 218 217 217 216 217 219 219 222 223 223 224 224 225 224 220 218 216 216 217 217 216 216 217 214 209 205 202 199 200 199 196 194 194 192 191 193 194 196 196 192 189
219 173 82 66 72 75 74 90 83 25 356 263 226 175 230 270 250 227 115 220 245 249 252 254 255 260 259 247 238 226 203 209 210 183 181 190 194 200 204 207 210 212 213 214 214 214 214 214 215 216 217 216 216 215 216 217 218 218 218 217 217 217 217 220 223 222 222 222 221 220 218 216 213 212 213 214 213 212 211 209 206 205 202 201 202 200 197 196 196 195 195 196 197 199 198 195 196
129 88 61 44 29 33 39 60 72 48 291 255 209 188 202 285 263 201 171 210 219 221 250 263 266 276 265 239 209 174 156 169 170 136 158 186 193 198 201 204 208 210 210 211 212 212 212 212 213 214 216 216 215 216 216 218 219 219 219 219 218 217 216 217 220 219 217 216 214 214 213 211 209 209 209 209 210 209 208 207 206 206 204 203 203 201 198 197 197 197 197 197 199 201 200 199 200
93 79 79 60 353 11 15 1 45 107 258 262 237 200 185 247 271 258 249 262 230 195 204 233 252 269 241 221 215 189 167 159 154 138 141 158 173 186 193 198 202 203 205 207 209 210 210 210 211 212 214 215 216 216 217 218 220 220 220 220 219 218 217 217 218 218 215 212 212 211 209 207 206 205 206 207 208 208 207 206 206 206 205 205 205 203 201 200 199 198 197 198 200 202 202 201 201
79 100 100 92 330 8 356 309 324 219 247 261 265 224 211 243 256 257 265 278 254 210 202 203 199 198 211 226 229 210 185 166 162 162 164 166 172 183 189 194 198 199 202 206 208 209 209 209 210 211 213 215 216 216 217 218 220 220 220 220 220 221 221 222 223 222 218 215 214 211 207 204 202 202 204 206 207 207 207 206 206 206 206 207 207 205 205 204 201 199 198 199 201 202 203 203 204
133 140 131 138 146 140 248 258 279 262 263 277 286 190 250 281 277 240 241 250 246 235 228 213 192 192 208 218 216 209 200 187 180 181 184 191 193 193 195 197 199 201 204 207 208 208 209 209 210 212 214 216 217 217 218 219 220 222 221 221 223 224 224 224 225 225 221 217 217 215 210 205 203 203 205 207 207 206 207 208 208 208 208 209 208 207 206 206 204 203 202 202 203 204 205 206 208
180 156 135 158 167 167 203 206 213 246 279 299 295 224 207 225 273 250 242 261 281 289 265 243 238 238 226 216 210 203 205 203 197 195 201 213 208 200 201 203 205 206 207 209 210 210 210 210 211 213 215 217 218 219 220 220 221 223 222 223 225 226 226 225 225 226 222 219 218 218 216 213 211 209 209 210 210 208 208 209 209 209 208 208 208 206 205 204 203 203 204 205 205 206 207 207 209
225 138 117 189 193 155 161 197 182 181 311 298 247 230 213 206 268 273 272 284 286 296 303 296 278 280 308 277 237 209 208 211 201 204 218 225 217 209 208 209 210 211 211 213 213 212 213 213 214 216 218 219 220 222 222 222 223 223 223 224 225 226 226 225 225 225 222 219 219 220 220 219 219 218 216 215 215 212 210 209 208 208 208 209 209 207 205 205 203 202 204 206 207 208 208 208 208
182 155 174 206 175 132 140 253 204 97 260 270 208 248 279 320 283 264 246 261 274 300 312 293 269 277 295 275 253 223 212 212 203 208 218 219 214 213 213 212 213 213 214 217 218 218 218 218 218 219 220 221 222 224 225 225 224 223 224 224 225 225 224 224 224 224 222 219 220 222 223 223 223 224 223 220 217 216 213 211 210 210 209 209 209 207 206 206 204 204 206 207 208 209 208 207 207
139 187 203 169 86 99 120 219 342 45 251 270 216 238 269 288 267 285 255 255 276 290 275 262 268 275 264 261 263 247 225 217 215 219 225 221 212 213 215 216 217 217 220 223 224 225 225 225 225 224 223 223 223 225 226 227 227 226 225 224 224 225 224 225 225 225 223 221 220 221 222 225 227 227 225 221 217 215 214 212 212 212 211 210 209 207 206 205 205 205 206 208 208 207 205 205 206
149 190 193 122 123 228 114 155 208 183 240 275 257 241 252 221 227 286 319 262 266 265 253 249 256 252 241 252 266 266 248 228 228 226 229 228 217 216 215 217 221 222 224 227 229 230 229 230 230 230 230 229 227 227 228 229 230 229 229 227 226 227 226 225 224 225 224 223 222 222 222 226 228 228 226 222 218 215 213 213 213 213 212 210 208 206 205 205 205 205 206 206 207 205 202 202 203
43 110 130 103 141 176 168 167 172 169 205 255 267 260 251 224 198 187 225 242 243 244 242 235 238 239 233 239 252 264 258 237 236 232 228 224 220 220 217 219 224 225 226 227 228 231 232 233 234 233 234 233 230 229 229 230 230 230 231 230 228 228 227 225 223 224 223 223 223 224 226 228 227 226 225 222 221 220 219 218 216 215 212 210 208 207 205 205 205 206 207 207 205 203 200 200 199
169 159 179 196 111 115 172 197 149 148 174 209 264 272 262 240 179 177 206 226 228 227 227 227 233 234 230 232 240 254 257 247 241 231 225 223 223 224 222 223 228 229 229 225 225 231 234 235 236 234 233 233 232 231 230 231 231 230 231 231 230 229 227 224 223 223 223 222 222 224 227 228 226 224 224 224 225 226 226 224 219 216 212 209 208 208 206 206 206 206 207 207 204 200 199 199 197
178 180 191 191 171 143 175 243 235 128 166 176 198 269 268 233 185 197 207 222 227 216 207 221 235 235 233 234 235 241 248 251 245 229 218 217 222 225 223 223 227 227 227 223 222 230 235 236 237 235 234 235 235 233 232 232 232 232 231 232 233 232 228 224 222 223 223 221 221 222 224 225 226 226 227 229 230 228 226 223 219 215 211 208 208 207 207 206 205 206 206 205 204 200 198 198 196